SCP
0 0 0 0 0 0 0 0 0 0 0 0 0 0 0 0 0 0 0 0 0 0 0 0 0 0 0 0 0 0 0 0 0 0 0 0 0 0 0 0 0 0 0 0
0 0 0 0 0 0 0 0 0 0 0 0 0 0 0 0 0 0 0 0 0 0 0 0 0 0 0 0 0 0 0 0 0 0 0 0 0 0 0 0 0 0 0 0
0 0 0 0 0 0 0 0 0 0 0 0 0 0 0 0 0 0 0 0 0 0 0 0 0 0 0 0 0 0 0 0 0 0 0 0 0 0 0 0 0 0 0 0
0 0 0 0 0 0 0 0 0 0 0 0 0 0 0 0 0 0 0 0 0 0 0 0 0 0 0 0 0 0 0 0 0 0 0 0 0 0 0 0 0 0 0 0
0 0 0 0 0 0 0 0 0 0 0 0 0 0 0 0 0 0 0 0 0 0 0 0 0 0 0 0 0 0 0 0 0 -0 0 0 0 0 0 0 0 0 0 0
0 0 0 0 0 0 0 0 0 0 0 0 0 0 0 0 0 0 0 0 0 0 0 0 0 0 0 0 0 0 0 0 0 -0 0 0 0 0 0 0 0 0 0 0
0 0 0 0 0 0 0 0 0 0 0 0 0 0 0 0 0 0 0 0 0 0 0 0 0 0 0 0 0 0 0 0 0 -0 0 0 0 0 0 0 0 0 0 0
0 0 0 0 0 0 0 0 0 0 0 0 0 0 0 0 0 -0 0 0 0 0 0 0 0 0 0 0 0 0 0 0 0 0 0 0 0 0 0 0 0 0 0 0
0 0 0 0 0 0 0 0 0 0 0 0 0 0 0 0 0 0 0 0 0 0 0 0 0 0 0 0 0 0 0 0 0 0 0 0 0 0 0 0 0 0 0 0
0 0 0 0 0 0 0 0 0 0 0 0 0 0 0 0 0 0 0 0 0 0 0 0 0 0 0 0 0 0 0 0 0 0 0 0 0 0 0 0 0 0 0 0
0 0 0 0 0 0 0 0 0 0 0 0 0 0 0 0 0 0 0 0 0 0 0 0 0 0 0 0 0 0 0 0 0 0 0 0 0 0 0 0 0 0 0 0
0 0 0 0 0 0 0 0 0 0 0 0 0 0 0 -0 0 0 0 0 0 0 0 0 0 0 0 0 0 0 0 0 0 0 0 0 0 0 0 0 0 0 0 0
-0 -0 0 0 0 0 0 0 0 0 0 0 0 0 0 0 0 0 0 0 0 0 0 0 0 0 0 0 0 0 0 0 0 0 0 0 0 0 0 0 0 0 0 0
0 0 0 0 0 0 0 0 0 0 0 0 0 0 0 0 0 0 0 0 0 0 0 0 0 0 0 0 0 0 0 0 0 0 0 0 0 0 0 0 0 0 0 0
-0 -0 -0 -0 -0 0 0 0 0 0 0 0 0 0 0 0 0 0 0 0 0 0 0 0 0 0 0 0 0 0 0 0 0 0 0 0 0 0 0 0 0 0 0 0
0 0 -0 -0 -0 -0 0 0 0 0 0 0 0 0 0 0 0 0 0 0 0 0 0 0 0 0 0 0 0 0 0 0 0 0 0 0 0 0 0 0 0 0 -0 -0
-0 -0 0 0 0 0 0 0 0 0 0 0 0 0 0 0 0 0 0 0 0 0 0 0 0 0 0 0 0 0 0 0 0 0 0 0 0 0 0 0 0 0 0 0
0 0 0 0 0 0 0 0 0 0 0 0 0 0 0 0 0 0 0 0 0 0 0 0 0 0 0 0 0 0 0 0 0 0 0 0 0 0 0 0 0 0 0 0
0 0 0 0 0 0 0 0 0 0 0 0 0 0 0 0 0 0 0 0 0 0 0 0 0 0 0 0 0 0 0 0 0 0 0 0 0 0 -0 0 0 0 0 0
0 0 0 0 0 0 0 0 0 0 0 0 0 0 0 0 0 0 0 0 0 0 0 0 0 0 0 0 0 0 0 0 0 0 0 0 0 0 0 0 0 0 0 0
0 0 0 0 0 0 0 0 0 0 0 0 0 0 0 0 0 0 0 0 0 0 0 0 0 0 0 0 0 0 0 0 0 0 0 0 0 0 0 0 0 0 0 0
0 0 0 0 0 0 0 0 0 0 0 0 0 0 0 0 0 0 0 0 0 0 0 0 0 0 0 0 0 0 0 0 0 0 0 0 0 0 0 0 0 0 0 0
0 0 0 0 0 0 0 0 0 0 0 0 0 0 0 0 0 0 0 0 0 0 0 0 0 0 0 0 0 0 0 0 0 0 0 0 0 0 0 0 0 -0 -0 0
0 0 0 0 0 0 0 0 0 0 0 0 0 0 0 0 0 0 0 0 0 0 0 0 0 0 0 0 0 0 0 0 0 0 -0 0 -0 0 0 0 0 0 0 0
0 0 0 0 0 0 0 0 0 0 0 0 0 0 0 0 0 0 0 0 0 0 0 0 0 0 0 0 0 0 -0 -0 -0 -0 -0 -0 0 0 0 0 0 0 0 0
0 0 0 0 0 0 0 0 0 0 0 0 0 0 0 0 0 0 0 0 0 0 0 0 0 0 0 -0 -0 -0 -0 -0 0 0 0 0 0 0 0 0 0 0 0 0
0 0 0 0 0 0 0 0 0 0 0 0 0 0 0 0 0 0 0 0 0 0 0 0 0 0 0 -0 -0 -0 0 0 0 0 0 0 0 0 0 0 0 0 0 0
Wind_Speed_500mb
47 48 42 35 38 38 35 31 6 36 50 12 9 15 9 22 39 34 19 21 19 12 13 9 4 10 5 27 25 7 8 6 9 17 30 26 26 11 11 7 6 2 3 7
52 48 44 48 50 50 48 31 11 50 66 13 18 10 16 31 22 18 7 13 13 7 1 2 12 11 5 5 10 5 3 5 7 13 3 5 7 11 10 8 6 7 4 7
53 52 56 56 60 57 55 26 7 20 38 30 11 29 30 32 20 36 40 25 19 7 5 3 6 5 3 12 6 6 5 4 10 4 8 6 9 15 11 8 5 7 9 11
49 54 57 61 64 66 64 30 15 27 15 28 19 13 13 38 25 35 28 14 25 13 7 7 10 8 4 6 7 3 0 7 13 15 13 17 22 15 8 7 9 10 4 7
57 56 66 69 70 73 74 22 14 29 9 45 37 37 31 35 20 22 29 35 27 22 21 16 10 15 10 8 18 16 10 10 3 9 17 23 26 19 16 13 11 5 7 5
69 60 65 78 76 80 47 71 58 23 27 26 22 34 37 28 26 37 61 29 20 22 24 26 5 12 14 14 14 19 8 7 4 8 8 14 11 19 18 11 11 13 15 9
73 68 68 78 88 87 71 65 51 29 14 22 34 24 36 40 49 36 33 52 19 18 21 10 1 15 27 34 32 23 11 15 5 6 12 6 5 8 13 21 15 21 19 18
78 78 78 79 90 96 96 66 66 41 23 37 27 37 26 50 58 48 44 46 39 28 17 6 4 4 7 15 17 18 13 8 4 5 5 5 2 3 1 10 9 16 22 25
84 83 86 88 85 100 100 99 75 66 28 37 57 32 58 22 15 17 39 14 24 36 7 3 12 12 13 11 10 35 20 11 7 2 7 7 2 13 26 15 5 14 35 37
92 91 93 95 97 105 110 104 102 68 45 65 40 36 27 50 27 7 10 18 13 37 7 7 8 11 13 9 14 10 19 9 21 12 8 2 3 8 11 5 6 10 27 41
100 104 104 103 105 108 109 119 97 102 56 46 63 68 47 32 62 10 25 15 7 16 11 10 9 8 10 17 16 13 19 15 8 8 7 14 7 4 6 6 29 27 27 26
112 111 109 108 109 113 113 101 107 88 80 20 58 58 46 65 54 45 51 14 30 22 7 8 6 8 4 4 5 19 8 7 8 3 4 9 9 13 15 26 34 28 29 28
118 122 126 129 131 134 135 128 88 85 78 56 54 37 42 48 51 59 27 17 35 15 21 3 4 8 5 5 6 9 5 14 7 8 9 13 14 17 19 21 26 23 25 26
87 107 124 128 141 141 137 133 110 102 40 11 13 39 26 48 42 44 28 41 23 24 27 21 6 3 7 2 3 6 7 13 12 8 16 21 18 24 27 30 29 28 25 24
100 131 149 145 134 140 146 134 114 119 62 11 10 29 27 36 43 25 37 43 27 31 9 7 6 6 6 3 5 3 6 9 7 6 36 13 28 32 33 38 37 36 33 28
39 47 93 117 141 149 145 64 106 120 58 16 7 11 24 35 35 28 24 39 43 30 10 7 4 4 7 5 4 8 25 22 15 13 41 18 43 38 35 36 33 32 33 29
125 96 94 123 150 139 94 53 95 135 54 13 8 6 23 33 32 34 36 30 19 17 13 8 13 8 7 4 6 19 21 26 29 36 40 34 45 31 35 33 32 30 32 32
117 134 145 137 119 98 85 80 102 88 35 15 7 7 11 37 29 11 17 12 8 4 4 3 8 11 6 3 21 34 34 28 23 24 2 34 38 43 40 38 40 39 38 35
108 114 110 115 105 81 85 88 65 34 26 13 6 7 7 40 34 19 15 7 4 2 3 3 11 2 5 19 38 44 44 23 33 23 26 46 50 47 45 43 38 37 34 28
77 76 58 22 52 80 75 51 14 12 11 7 6 15 7 38 31 6 12 9 6 4 8 6 5 2 12 45 48 49 35 29 39 44 44 47 48 52 43 39 37 32 36 35
38 31 36 76 66 36 14 10 9 8 6 10 14 46 22 37 8 6 8 6 4 5 7 8 3 3 4 47 46 42 34 37 34 34 41 46 46 45 43 40 38 34 33 32
64 68 59 28 12 12 12 4 3 7 7 13 23 38 34 20 13 8 1 4 4 5 8 6 3 3 47 52 46 38 40 37 32 33 38 37 37 38 40 39 37 33 32 29
56 24 14 10 10 12 9 8 4 6 10 38 41 14 13 10 9 7 6 5 5 1 4 6 4 33 53 51 43 41 40 38 35 35 33 30 33 36 36 34 31 29 29 28
19 12 12 7 8 7 4 4 7 12 40 51 46 14 10 9 7 3 7 3 5 3 4 5 4 47 53 45 46 50 47 38 33 32 31 31 32 32 28 24 26 27 28 28
13 13 9 7 7 12 10 16 42 55 61 50 30 13 11 3 6 3 6 5 5 6 6 3 30 54 50 42 44 43 44 38 37 33 32 33 32 29 29 27 26 26 26 24
12 16 9 17 11 7 27 41 44 53 45 24 10 6 6 3 8 5 8 9 4 4 4 27 47 50 42 42 41 37 36 35 34 33 31 30 30 29 28 30 29 27 23 21
11 9 25 23 16 17 27 33 22 23 9 3 7 7 4 6 4 4 6 5 4 20 23 28 32 37 41 40 38 37 36 33 31 31 33 31 31 30 31 32 31 26 23 20
Wind_Direction_500mb
230 229 219 202 188 201 188 171 175 168 172 149 205 224 197 239 276 286 251 249 248 251 190 211 258 203 175 335 330 240 190 267 268 260 286 311 311 212 215 155 270 268 233 252
231 225 216 206 191 201 178 163 124 171 172 202 213 246 232 233 265 263 275 261 195 128 59 205 216 198 39 24 304 151 191 266 314 290 228 357 356 73 76 71 75 243 139 268
239 226 216 206 193 203 189 165 146 179 205 234 241 224 243 249 255 238 258 273 245 119 142 234 254 192 203 138 139 83 76 267 246 250 332 256 299 327 9 90 96 273 252 169
230 221 213 208 199 199 192 187 205 183 194 215 210 228 242 224 232 220 210 250 243 141 200 216 217 204 196 223 178 146 272 255 254 278 281 277 264 249 187 247 235 255 258 146
231 222 221 207 204 198 200 192 193 167 181 198 207 220 237 241 260 213 238 239 232 211 193 191 197 195 173 196 200 182 186 262 238 260 261 241 247 196 199 221 205 267 166 202
235 237 226 214 209 201 203 209 214 197 205 177 186 216 224 238 230 246 231 224 226 223 198 216 174 323 278 221 202 191 205 201 224 262 330 343 243 216 187 180 174 197 216 186
235 232 228 217 212 210 209 207 206 218 229 198 210 195 202 227 234 238 251 228 213 211 172 169 13 298 291 237 238 208 221 203 180 284 359 268 244 289 188 212 179 105 105 144
235 231 228 224 218 213 216 212 205 211 227 231 233 206 206 219 234 245 249 232 246 169 113 74 48 276 312 265 252 243 206 166 206 205 230 299 288 336 298 205 217 148 146 127
234 232 230 228 223 217 218 218 214 212 233 225 230 244 212 216 219 236 250 132 178 153 99 120 200 192 202 193 220 218 219 163 156 238 243 261 133 22 2 71 254 162 148 148
235 235 233 232 226 218 215 216 214 213 225 234 220 218 244 211 214 179 139 135 179 165 119 186 217 227 233 221 193 158 197 192 211 221 237 165 59 26 348 153 220 70 159 159
238 241 240 230 223 214 213 216 214 212 225 241 235 243 261 255 213 160 145 133 233 168 166 195 199 227 235 235 196 178 176 174 190 194 219 253 57 47 172 130 87 104 97 123
245 239 232 227 221 215 210 213 216 214 215 239 234 235 261 246 240 183 169 186 173 171 158 209 168 277 300 216 161 184 206 163 150 123 144 95 59 64 100 131 104 103 116 118
242 236 230 224 218 214 209 209 207 202 207 235 251 240 238 219 224 204 162 198 181 183 198 52 266 227 177 215 250 101 74 104 94 124 144 136 119 114 123 127 123 128 125 128
231 227 224 216 213 209 201 202 199 192 182 203 201 197 209 158 174 181 205 169 182 196 201 225 255 249 5 66 147 88 180 114 120 83 124 131 152 139 133 128 130 126 122 116
240 235 229 222 211 200 195 194 194 189 176 132 141 161 139 161 168 155 181 176 195 188 210 197 225 191 86 5 74 78 28 152 155 197 179 147 159 159 156 145 137 133 130 133
179 164 187 192 191 186 174 171 191 183 180 134 141 102 152 144 153 148 186 193 196 196 204 200 143 163 134 136 114 114 104 103 129 130 158 163 157 165 166 157 153 151 140 131
93 124 142 158 161 154 154 165 167 178 179 120 110 93 157 153 162 187 198 199 190 205 215 174 156 178 113 106 151 138 118 126 123 145 140 125 157 165 168 162 148 139 138 149
93 101 109 118 125 128 120 133 154 160 147 98 113 93 138 161 145 134 154 146 148 103 137 136 126 128 131 98 135 137 137 136 145 163 151 175 168 156 157 149 155 156 158 164
95 100 108 104 105 112 122 131 135 130 114 116 111 122 134 164 154 139 148 159 63 145 133 237 148 181 210 166 153 148 153 152 161 151 157 157 161 154 157 162 163 164 164 168
94 97 91 83 112 119 115 111 87 65 64 101 112 120 132 158 150 119 144 157 159 154 233 161 88 263 156 159 165 161 149 156 156 146 156 161 161 162 165 169 172 175 169 171
86 84 96 121 123 113 85 82 100 117 82 103 127 144 135 153 113 143 150 174 178 145 234 130 223 199 137 158 160 161 155 161 172 180 176 173 173 167 167 172 180 186 186 184
113 108 114 109 84 78 83 79 43 88 155 147 141 139 133 121 112 100 138 123 39 173 168 95 207 224 146 150 152 158 161 165 162 169 171 176 178 176 181 181 183 191 191 186
116 100 69 55 17 62 107 148 79 101 151 136 138 113 115 97 92 74 90 115 194 40 64 199 204 141 146 149 155 156 160 156 157 163 170 174 175 184 198 197 198 191 179 175
57 48 44 52 23 49 13 37 103 126 129 127 124 90 110 108 71 149 95 216 99 162 124 190 159 147 149 158 160 164 159 167 169 175 183 191 195 195 200 202 194 183 177 172
63 40 56 55 76 48 27 97 114 124 127 125 102 81 94 105 118 170 124 138 195 199 175 109 140 155 162 169 173 174 169 174 180 190 196 197 198 198 191 187 183 179 178 179
60 47 56 97 81 34 87 109 112 130 125 119 121 113 89 117 140 113 190 165 149 132 88 136 150 157 161 173 180 185 183 182 187 190 196 196 195 194 191 183 178 178 182 184
51 39 60 78 64 55 67 87 92 133 127 160 98 77 171 135 98 67 25 68 92 127 136 159 174 176 175 178 183 188 186 190 195 201 197 196 192 189 184 181 178 181 181 182
Wind_Speed_850mb
47 48 42 35 38 38 35 31 6 36 50 12 9 15 9 22 39 34 19 21 19 12 13 9 4 10 5 27 25 7 8 6 9 17 30 26 26 11 11 7 6 2 3 7
52 48 44 48 50 50 48 31 11 50 66 13 18 10 16 31 22 18 7 13 13 7 1 2 12 11 5 5 10 5 3 5 7 13 3 5 7 11 10 8 6 7 4 7
53 52 56 56 60 57 55 26 7 20 38 30 11 29 30 32 20 36 40 25 19 7 5 3 6 5 3 12 6 6 5 4 10 4 8 6 9 15 11 8 5 7 9 11
49 54 57 61 64 66 64 30 15 27 15 28 19 13 13 38 25 35 28 14 25 13 7 7 10 8 4 6 7 3 0 7 13 15 13 17 22 15 8 7 9 10 4 7
57 56 66 69 70 73 74 22 14 29 9 45 37 37 31 35 20 22 29 35 27 22 21 16 10 15 10 8 18 16 10 10 3 9 17 23 26 19 16 13 11 5 7 5
69 60 65 78 76 80 47 71 58 23 27 26 22 34 37 28 26 37 61 29 20 22 24 26 5 12 14 14 14 19 8 7 4 8 8 14 11 19 18 11 11 13 15 9
73 68 68 78 88 87 71 65 51 29 14 22 34 24 36 40 49 36 33 52 19 18 21 10 1 15 27 34 32 23 11 15 5 6 12 6 5 8 13 21 15 21 19 18
78 78 78 79 90 96 96 66 66 41 23 37 27 37 26 50 58 48 44 46 39 28 17 6 4 4 7 15 17 18 13 8 4 5 5 5 2 3 1 10 9 16 22 25
84 83 86 88 85 100 100 99 75 66 28 37 57 32 58 22 15 17 39 14 24 36 7 3 12 12 13 11 10 35 20 11 7 2 7 7 2 13 26 15 5 14 35 37
92 91 93 95 97 105 110 104 102 68 45 65 40 36 27 50 27 7 10 18 13 37 7 7 8 11 13 9 14 10 19 9 21 12 8 2 3 8 11 5 6 10 27 41
100 104 104 103 105 108 109 119 97 102 56 46 63 68 47 32 62 10 25 15 7 16 11 10 9 8 10 17 16 13 19 15 8 8 7 14 7 4 6 6 29 27 27 26
112 111 109 108 109 113 113 101 107 88 80 20 58 58 46 65 54 45 51 14 30 22 7 8 6 8 4 4 5 19 8 7 8 3 4 9 9 13 15 26 34 28 29 28
118 122 126 129 131 134 135 128 88 85 78 56 54 37 42 48 51 59 27 17 35 15 21 3 4 8 5 5 6 9 5 14 7 8 9 13 14 17 19 21 26 23 25 26
87 107 124 128 141 141 137 133 110 102 40 11 13 39 26 48 42 44 28 41 23 24 27 21 6 3 7 2 3 6 7 13 12 8 16 21 18 24 27 30 29 28 25 24
100 131 149 145 134 140 146 134 114 119 62 11 10 29 27 36 43 25 37 43 27 31 9 7 6 6 6 3 5 3 6 9 7 6 36 13 28 32 33 38 37 36 33 28
39 47 93 117 141 149 145 64 106 120 58 16 7 11 24 35 35 28 24 39 43 30 10 7 4 4 7 5 4 8 25 22 15 13 41 18 43 38 35 36 33 32 33 29
125 96 94 123 150 139 94 53 95 135 54 13 8 6 23 33 32 34 36 30 19 17 13 8 13 8 7 4 6 19 21 26 29 36 40 34 45 31 35 33 32 30 32 32
117 134 145 137 119 98 85 80 102 88 35 15 7 7 11 37 29 11 17 12 8 4 4 3 8 11 6 3 21 34 34 28 23 24 2 34 38 43 40 38 40 39 38 35
108 114 110 115 105 81 85 88 65 34 26 13 6 7 7 40 34 19 15 7 4 2 3 3 11 2 5 19 38 44 44 23 33 23 26 46 50 47 45 43 38 37 34 28
77 76 58 22 52 80 75 51 14 12 11 7 6 15 7 38 31 6 12 9 6 4 8 6 5 2 12 45 48 49 35 29 39 44 44 47 48 52 43 39 37 32 36 35
38 31 36 76 66 36 14 10 9 8 6 10 14 46 22 37 8 6 8 6 4 5 7 8 3 3 4 47 46 42 34 37 34 34 41 46 46 45 43 40 38 34 33 32
64 68 59 28 12 12 12 4 3 7 7 13 23 38 34 20 13 8 1 4 4 5 8 6 3 3 47 52 46 38 40 37 32 33 38 37 37 38 40 39 37 33 32 29
56 24 14 10 10 12 9 8 4 6 10 38 41 14 13 10 9 7 6 5 5 1 4 6 4 33 53 51 43 41 40 38 35 35 33 30 33 36 36 34 31 29 29 28
19 12 12 7 8 7 4 4 7 12 40 51 46 14 10 9 7 3 7 3 5 3 4 5 4 47 53 45 46 50 47 38 33 32 31 31 32 32 28 24 26 27 28 28
13 13 9 7 7 12 10 16 42 55 61 50 30 13 11 3 6 3 6 5 5 6 6 3 30 54 50 42 44 43 44 38 37 33 32 33 32 29 29 27 26 26 26 24
12 16 9 17 11 7 27 41 44 53 45 24 10 6 6 3 8 5 8 9 4 4 4 27 47 50 42 42 41 37 36 35 34 33 31 30 30 29 28 30 29 27 23 21
11 9 25 23 16 17 27 33 22 23 9 3 7 7 4 6 4 4 6 5 4 20 23 28 32 37 41 40 38 37 36 33 31 31 33 31 31 30 31 32 31 26 23 20
Wind_Direction_850mb
230 229 219 202 188 201 188 171 175 168 172 149 205 224 197 239 276 286 251 249 248 251 190 211 258 203 175 335 330 240 190 267 268 260 286 311 311 212 215 155 270 268 233 252
231 225 216 206 191 201 178 163 124 171 172 202 213 246 232 233 265 263 275 261 195 128 59 205 216 198 39 24 304 151 191 266 314 290 228 357 356 73 76 71 75 243 139 268
239 226 216 206 193 203 189 165 146 179 205 234 241 224 243 249 255 238 258 273 245 119 142 234 254 192 203 138 139 83 76 267 246 250 332 256 299 327 9 90 96 273 252 169
230 221 213 208 199 199 192 187 205 183 194 215 210 228 242 224 232 220 210 250 243 141 200 216 217 204 196 223 178 146 272 255 254 278 281 277 264 249 187 247 235 255 258 146
231 222 221 207 204 198 200 192 193 167 181 198 207 220 237 241 260 213 238 239 232 211 193 191 197 195 173 196 200 182 186 262 238 260 261 241 247 196 199 221 205 267 166 202
235 237 226 214 209 201 203 209 214 197 205 177 186 216 224 238 230 246 231 224 226 223 198 216 174 323 278 221 202 191 205 201 224 262 330 343 243 216 187 180 174 197 216 186
235 232 228 217 212 210 209 207 206 218 229 198 210 195 202 227 234 238 251 228 213 211 172 169 13 298 291 237 238 208 221 203 180 284 359 268 244 289 188 212 179 105 105 144
235 231 228 224 218 213 216 212 205 211 227 231 233 206 206 219 234 245 249 232 246 169 113 74 48 276 312 265 252 243 206 166 206 205 230 299 288 336 298 205 217 148 146 127
234 232 230 228 223 217 218 218 214 212 233 225 230 244 212 216 219 236 250 132 178 153 99 120 200 192 202 193 220 218 219 163 156 238 243 261 133 22 2 71 254 162 148 148
235 235 233 232 226 218 215 216 214 213 225 234 220 218 244 211 214 179 139 135 179 165 119 186 217 227 233 221 193 158 197 192 211 221 237 165 59 26 348 153 220 70 159 159
238 241 240 230 223 214 213 216 214 212 225 241 235 243 261 255 213 160 145 133 233 168 166 195 199 227 235 235 196 178 176 174 190 194 219 253 57 47 172 130 87 104 97 123
245 239 232 227 221 215 210 213 216 214 215 239 234 235 261 246 240 183 169 186 173 171 158 209 168 277 300 216 161 184 206 163 150 123 144 95 59 64 100 131 104 103 116 118
242 236 230 224 218 214 209 209 207 202 207 235 251 240 238 219 224 204 162 198 181 183 198 52 266 227 177 215 250 101 74 104 94 124 144 136 119 114 123 127 123 128 125 128
231 227 224 216 213 209 201 202 199 192 182 203 201 197 209 158 174 181 205 169 182 196 201 225 255 249 5 66 147 88 180 114 120 83 124 131 152 139 133 128 130 126 122 116
240 235 229 222 211 200 195 194 194 189 176 132 141 161 139 161 168 155 181 176 195 188 210 197 225 191 86 5 74 78 28 152 155 197 179 147 159 159 156 145 137 133 130 133
179 164 187 192 191 186 174 171 191 183 180 134 141 102 152 144 153 148 186 193 196 196 204 200 143 163 134 136 114 114 104 103 129 130 158 163 157 165 166 157 153 151 140 131
93 124 142 158 161 154 154 165 167 178 179 120 110 93 157 153 162 187 198 199 190 205 215 174 156 178 113 106 151 138 118 126 123 145 140 125 157 165 168 162 148 139 138 149
93 101 109 118 125 128 120 133 154 160 147 98 113 93 138 161 145 134 154 146 148 103 137 136 126 128 131 98 135 137 137 136 145 163 151 175 168 156 157 149 155 156 158 164
95 100 108 104 105 112 122 131 135 130 114 116 111 122 134 164 154 139 148 159 63 145 133 237 148 181 210 166 153 148 153 152 161 151 157 157 161 154 157 162 163 164 164 168
94 97 91 83 112 119 115 111 87 65 64 101 112 120 132 158 150 119 144 157 159 154 233 161 88 263 156 159 165 161 149 156 156 146 156 161 161 162 165 169 172 175 169 171
86 84 96 121 123 113 85 82 100 117 82 103 127 144 135 153 113 143 150 174 178 145 234 130 223 199 137 158 160 161 155 161 172 180 176 173 173 167 167 172 180 186 186 184
113 108 114 109 84 78 83 79 43 88 155 147 141 139 133 121 112 100 138 123 39 173 168 95 207 224 146 150 152 158 161 165 162 169 171 176 178 176 181 181 183 191 191 186
116 100 69 55 17 62 107 148 79 101 151 136 138 113 115 97 92 74 90 115 194 40 64 199 204 141 146 149 155 156 160 156 157 163 170 174 175 184 198 197 198 191 179 175
57 48 44 52 23 49 13 37 103 126 129 127 124 90 110 108 71 149 95 216 99 162 124 190 159 147 149 158 160 164 159 167 169 175 183 191 195 195 200 202 194 183 177 172
63 40 56 55 76 48 27 97 114 124 127 125 102 81 94 105 118 170 124 138 195 199 175 109 140 155 162 169 173 174 169 174 180 190 196 197 198 198 191 187 183 179 178 179
60 47 56 97 81 34 87 109 112 130 125 119 121 113 89 117 140 113 190 165 149 132 88 136 150 157 161 173 180 185 183 182 187 190 196 196 195 194 191 183 178 178 182 184
51 39 60 78 64 55 67 87 92 133 127 160 98 77 171 135 98 67 25 68 92 127 136 159 174 176 175 178 183 188 186 190 195 201 197 196 192 189 184 181 178 181 181 182